Theta_e
323 324 326 327 327 329 331 336 336 336 336 337 334 333 330 332 335 339 342 340 339 338 338 340 339 338 335 335 335 334 331 331 334 335 334 333 334 333 334 334 331 330 331
320 323 325 326 327 327 328 328 332 335 336 337 337 338 336 337 336 336 337 338 338 340 338 338 339 339 337 336 335 335 331 333 338 331 328 321 324 330 330 330 329 328 330
318 320 322 325 325 325 327 327 328 332 335 337 336 336 337 337 336 338 338 339 339 341 342 340 340 339 340 338 335 334 333 332 333 333 326 320 317 322 328 327 327 326 327
319 320 322 324 323 322 324 327 327 329 336 336 333 331 329 329 334 336 338 338 338 339 339 339 338 337 337 335 334 334 334 331 326 327 328 329 325 319 318 325 325 325 324
317 319 323 325 324 322 323 327 327 328 330 332 331 331 329 331 334 333 331 331 331 336 337 336 335 334 334 333 334 331 329 329 327 326 326 326 326 326 322 317 320 322 323
311 314 321 326 324 327 329 327 326 327 329 329 330 330 329 327 328 327 327 327 328 329 333 335 335 333 332 331 331 331 331 329 328 326 325 324 322 321 320 316 316 316 319
311 311 311 313 319 323 326 326 327 326 327 327 326 328 329 327 326 324 324 325 326 327 329 332 332 332 332 332 332 331 331 329 325 325 323 325 324 323 320 317 314 312 315
312 311 312 312 314 318 322 326 327 326 327 326 327 329 329 328 325 325 325 325 326 327 331 331 333 331 331 330 330 329 327 324 322 321 321 321 320 320 319 316 314 310 312
306 312 313 313 313 314 317 321 325 327 328 328 328 329 329 327 327 327 328 328 330 329 329 328 327 326 325 325 324 322 319 321 321 322 320 318 316 319 319 318 317 313 306
306 309 308 309 312 314 316 318 320 323 329 331 331 331 330 331 331 331 330 329 329 326 325 323 320 320 318 318 317 317 315 316 316 316 316 315 315 315 316 315 315 314 309
306 307 307 307 306 309 313 315 317 320 323 330 330 328 330 330 330 328 327 326 323 321 319 316 313 312 313 312 312 312 312 311 311 311 312 313 313 313 313 313 313 311 310
304 307 307 307 307 307 309 312 314 316 321 326 327 326 326 325 324 324 321 320 318 317 315 312 310 308 308 309 309 306 307 307 307 308 308 309 308 309 310 309 309 309 308
303 305 307 307 307 308 310 311 313 315 320 323 324 324 322 322 322 320 317 317 315 312 310 309 307 306 305 306 306 306 306 306 306 306 306 306 306 306 307 307 306 306 305
302 303 304 306 308 309 310 311 313 314 315 317 316 317 317 318 318 316 315 312 310 306 304 304 304 303 304 304 306 304 304 303 303 304 304 304 304 304 304 303 303 303 301
302 302 302 304 306 308 309 310 311 312 312 312 312 312 313 314 313 313 310 308 307 305 303 302 302 302 303 303 302 303 302 302 301 301 301 302 299 298 299 300 301 301 299
302 303 303 303 304 305 306 308 309 309 310 309 309 309 309 308 309 309 309 306 304 303 302 301 301 303 300 301 302 302 301 301 301 299 300 299 296 297 298 298 297 297 297
302 302 301 302 302 303 304 305 307 309 309 309 308 307 306 306 305 305 305 304 303 303 302 302 301 300 299 300 300 301 300 300 299 299 299 298 297 295 298 295 293 293 293
300 301 302 302 303 303 304 304 305 307 308 308 307 306 306 305 304 303 303 302 302 302 301 300 300 300 299 300 299 298 297 298 298 298 298 298 296 295 294 293 292 291 291
300 301 302 302 303 303 303 303 303 304 306 306 307 307 305 304 303 302 302 302 297 297 299 299 299 299 298 300 298 297 297 297 296 297 297 296 295 294 293 291 289 289 288
301 301 302 302 303 303 303 302 302 302 303 304 307 307 306 305 302 302 301 300 296 293 298 297 298 299 298 299 298 297 297 295 294 294 294 292 293 293 293 291 290 286 286
300 300 301 301 301 301 301 301 302 302 304 305 306 307 306 305 304 300 300 297 294 295 296 295 297 297 298 297 298 297 296 294 293 291 291 290 293 293 292 292 290 288 288
297 298 298 299 300 300 300 300 301 303 303 303 303 304 305 303 301 300 297 296 296 294 294 295 295 296 297 298 298 297 296 296 292 290 292 291 291 291 292 292 292 290 288
298 298 298 297 298 298 298 297 299 301 301 302 302 303 303 302 300 298 296 295 295 296 295 295 295 294 295 296 296 297 297 296 293 291 290 290 289 289 289 291 292 291 287
297 297 297 297 297 297 297 297 298 300 300 301 301 302 302 300 300 298 295 296 295 296 295 295 295 294 293 294 295 295 295 296 295 293 289 289 289 289 288 288 290 288 287
297 297 296 295 295 296 296 296 297 299 299 300 300 300 300 299 298 297 295 296 296 297 296 295 294 293 291 293 294 294 294 294 293 291 288 287 286 285 285 285 286 287 286
295 295 294 294 295 295 295 295 296 297 298 297 298 297 296 294 293 293 291 294 294 295 295 296 294 292 294 295 295 295 294 294 295 288 286 286 285 285 285 284 284 285 285
Wind_Speed
15 14 12 12 11 6 5 14 16 15 9 9 8 8 8 6 5 6 11 10 8 11 8 4 7 6 6 7 7 6 5 4 3 1 3 4 6 4 5 2 4 2 2
15 14 11 7 8 7 3 4 8 16 12 8 8 6 5 5 6 4 5 5 6 6 8 7 5 5 5 6 7 6 4 4 3 2 1 1 3 1 3 2 2 2 0
16 9 10 9 6 6 4 3 1 9 9 10 7 7 6 5 3 5 4 5 6 5 4 5 4 3 3 4 2 2 3 4 1 3 2 3 4 2 4 4 4 4 3
14 15 12 16 19 14 8 7 8 9 8 12 7 12 6 7 4 4 3 4 6 7 7 7 6 6 2 4 4 4 5 3 4 0 3 6 4 1 2 2 3 3 4
8 17 19 16 16 14 15 13 11 10 11 12 8 5 5 5 6 6 3 3 2 3 5 7 6 6 4 4 5 2 4 3 5 3 2 3 3 4 4 4 1 2 4
12 10 11 12 15 12 12 14 13 12 9 8 10 10 8 9 8 6 5 2 2 2 6 7 7 6 5 4 6 9 11 8 6 5 3 3 2 4 3 5 5 4 3
14 13 11 9 9 10 15 15 18 19 17 15 14 11 11 12 12 7 4 2 5 7 9 7 7 6 8 9 10 10 9 8 7 6 4 3 3 3 2 2 2 3 1
11 12 12 11 11 12 10 14 16 16 15 14 14 11 9 3 4 4 4 8 11 9 8 7 7 7 8 7 7 5 5 6 5 6 4 2 2 1 1 1 2 3 5
5 8 11 12 12 13 13 12 13 18 20 21 18 19 13 11 11 16 14 12 12 8 6 7 5 5 4 6 6 5 4 4 4 4 4 3 3 3 2 2 2 3 3
1 6 5 4 4 7 10 12 14 13 11 12 8 9 12 13 16 13 15 13 7 5 7 6 6 6 6 7 6 5 5 5 4 4 5 4 2 2 2 2 3 4 4
6 4 4 5 4 2 3 5 8 10 10 10 11 10 8 7 7 7 7 7 5 6 7 8 8 8 8 7 6 6 7 6 5 4 4 4 3 1 3 1 2 3 2
7 7 7 5 4 6 6 6 7 8 8 10 10 10 9 8 7 6 6 7 6 6 7 8 9 8 7 7 8 8 6 6 6 5 3 3 3 3 1 1 3 4 3
10 10 9 8 4 4 6 8 5 4 5 8 10 10 9 10 10 10 9 8 9 8 7 7 8 8 6 8 7 7 6 5 4 4 2 2 2 3 3 3 2 1 4
11 10 9 8 6 6 7 6 6 7 6 6 7 9 9 8 8 9 9 9 9 9 7 7 8 7 6 5 5 6 6 5 4 3 1 2 3 2 2 2 3 2 4
13 11 9 8 9 8 7 7 6 7 7 7 7 6 6 6 7 8 9 9 9 9 9 9 8 7 6 5 6 6 6 6 5 3 3 2 5 5 6 2 2 3 3
12 11 9 9 8 8 7 5 6 6 5 7 7 6 6 5 6 7 8 9 8 8 8 8 7 7 4 8 8 7 5 5 5 4 4 5 3 2 1 2 3 3 3
10 9 9 8 8 8 6 6 5 5 5 5 7 7 8 7 6 7 7 7 8 8 8 8 8 8 8 11 10 7 5 4 4 3 3 4 3 2 4 3 2 2 1
9 10 9 8 8 8 7 5 3 2 2 3 5 6 8 9 9 9 8 8 7 7 6 6 6 7 7 11 11 9 4 3 4 4 5 4 5 4 3 3 2 2 1
8 7 7 7 8 8 9 7 4 1 3 4 5 7 7 8 8 8 8 7 5 5 6 6 7 6 7 9 11 9 6 5 3 3 2 2 3 6 5 2 3 3 1
8 8 7 6 4 5 7 8 8 7 6 4 4 5 6 7 8 8 8 6 5 5 5 5 5 7 9 12 13 7 3 4 3 2 2 2 4 7 7 4 4 4 3
9 8 9 7 6 6 6 6 6 8 8 6 4 4 6 6 7 8 7 7 8 7 6 7 6 6 6 9 14 12 3 2 2 2 2 3 7 7 7 8 4 2 1
7 7 7 7 7 8 7 7 6 5 6 6 7 6 5 5 6 9 8 8 8 8 7 6 6 5 6 6 12 12 8 3 2 2 4 3 9 10 7 6 6 4 3
6 6 6 5 5 7 8 8 7 7 5 5 7 8 7 7 7 8 8 7 8 6 7 6 6 6 5 6 7 9 10 9 4 1 3 5 10 9 7 8 8 7 4
4 4 6 5 5 6 6 7 8 7 4 5 5 6 8 8 7 6 5 5 6 6 7 7 6 5 5 4 5 5 6 12 10 8 5 7 8 7 4 3 5 4 3
4 4 4 3 4 5 6 7 8 7 3 1 3 5 6 7 7 6 6 6 6 5 6 5 4 6 5 7 10 9 7 7 8 7 3 4 4 3 3 3 4 3 3
4 3 3 4 5 6 7 8 9 8 5 2 1 3 3 3 3 4 3 1 3 3 5 6 4 2 4 10 13 11 9 7 12 4 4 5 4 4 3 4 4 4 4
Wind_Direction
161 165 181 187 191 186 234 161 171 176 154 151 153 161 164 159 167 173 182 184 189 190 192 206 212 191 209 209 212 211 198 202 223 126 250 271 256 255 252 252 266 132 329
155 164 169 180 159 189 227 128 190 167 163 155 150 152 144 149 158 158 176 187 195 207 197 200 231 220 215 226 222 205 200 203 136 159 76 298 318 229 244 237 262 307 334
143 153 148 168 113 124 252 231 326 164 150 157 149 135 122 115 140 161 168 175 191 187 204 225 197 244 262 277 317 214 227 183 155 166 138 169 227 59 151 202 229 227 212
172 152 195 183 155 148 249 177 218 233 164 153 165 152 156 140 148 165 179 181 204 203 199 216 210 218 208 182 222 250 233 162 164 129 248 290 20 323 310 158 220 246 261
187 173 190 180 168 172 199 182 189 208 208 184 149 166 157 148 141 128 107 100 257 265 203 211 211 205 189 193 205 191 202 196 168 193 150 218 246 240 243 284 198 236 233
176 200 196 179 182 173 174 172 183 198 191 192 182 186 185 167 158 160 154 201 193 231 226 211 208 190 165 176 201 199 219 206 198 180 189 218 239 214 226 253 260 269 146
176 173 179 180 186 189 180 186 189 195 196 211 225 212 199 183 169 156 158 12 269 231 230 214 208 196 192 208 215 211 211 204 193 174 161 206 242 274 293 311 304 292 0
179 171 178 180 188 200 212 190 197 206 200 201 222 232 221 213 86 213 215 209 240 237 221 219 219 201 189 191 191 194 197 161 147 148 171 197 208 217 279 193 233 271 243
221 191 172 182 184 186 195 189 209 216 207 202 206 216 218 197 201 208 223 216 222 218 196 202 191 170 161 148 165 154 148 145 151 155 161 186 190 197 206 237 233 260 280
169 173 181 181 179 176 186 189 187 208 183 179 197 195 212 198 198 197 207 213 215 174 178 153 140 154 138 142 135 124 126 137 155 159 183 188 179 170 204 212 240 202 246
66 114 135 139 159 173 149 195 192 189 185 171 175 178 174 165 165 176 178 165 159 155 152 140 143 145 149 142 137 140 158 154 152 160 184 177 169 213 218 219 286 281 138
60 63 72 88 120 157 162 198 193 176 181 169 164 167 158 160 173 146 131 147 155 160 165 156 149 143 141 150 146 143 143 155 161 152 184 179 118 248 232 241 244 244 255
51 56 55 59 75 118 156 169 175 151 156 157 161 160 160 168 168 153 154 158 153 143 147 150 138 141 142 151 144 143 159 145 133 126 169 165 193 224 203 217 244 269 264
34 48 69 85 89 112 130 136 130 131 160 152 144 159 163 158 150 145 147 142 141 138 133 129 130 127 120 119 130 130 128 118 115 114 149 192 210 230 171 197 216 236 240
30 30 30 46 72 86 91 109 124 142 147 139 141 138 137 125 128 137 135 134 141 139 134 128 121 125 131 143 143 134 129 133 130 124 132 92 44 37 8 327 257 241 245
8 16 22 28 39 61 71 88 115 111 128 128 122 118 117 121 130 133 136 134 133 133 127 128 133 132 135 129 126 131 126 118 141 150 144 136 140 161 132 61 358 346 304
359 7 14 21 27 32 22 41 72 108 131 139 134 143 142 142 141 137 139 134 139 141 144 142 146 143 132 147 139 122 124 129 124 132 170 171 151 183 162 140 117 80 56
17 15 8 6 7 4 15 21 39 87 121 155 155 162 167 156 154 153 150 149 150 150 145 144 138 134 140 153 139 106 102 122 161 181 190 190 177 155 182 226 137 226 152
13 11 14 358 343 350 347 338 325 267 224 214 190 173 175 165 161 166 158 154 133 128 141 137 140 145 146 153 147 163 163 169 165 180 144 195 177 160 169 176 228 219 182
4 3 357 340 351 3 336 322 312 300 278 253 217 186 184 179 170 164 149 134 126 117 121 134 158 168 151 167 175 200 179 182 130 142 115 233 215 183 193 198 234 233 196
341 342 355 348 358 347 326 294 281 279 296 305 286 215 195 179 151 134 138 137 150 156 152 154 165 165 168 174 186 195 179 125 158 115 205 205 223 224 211 214 232 244 100
336 338 333 339 344 349 338 324 311 324 298 268 251 234 204 164 147 153 148 164 159 160 158 162 168 182 184 172 192 196 205 174 138 202 235 184 204 220 213 209 215 181 216
332 328 328 326 351 355 351 332 335 318 298 261 238 214 195 174 165 160 162 162 169 173 173 187 182 180 185 184 188 201 209 213 227 223 226 179 200 212 216 225 191 197 202
346 337 326 344 359 354 347 345 331 322 293 248 211 201 194 173 168 152 162 179 178 185 190 193 183 174 170 172 154 194 210 224 207 205 207 202 205 203 213 182 203 203 216
328 331 332 346 352 348 359 360 348 335 325 236 155 176 186 177 165 167 181 200 194 207 198 187 177 159 174 194 192 186 193 192 194 179 185 203 203 200 197 195 218 200 182
315 297 312 334 350 356 7 2 357 356 343 55 132 136 142 148 142 142 140 69 157 156 78 106 128 131 136 172 185 190 191 194 174 171 183 205 202 212 210 195 200 199 207